FENGYUN 1C DEB, 31880

Orbit data source: Space-Track

FENGYUN 1C DEB, 31880 is space debris in SSO originally from a launch on Mon, 10 May 1999 UTC launched from the Taiyaun Space Center, China (TSC). Fengyun 1C debris stems from the Chinese weather satellite Fengyun-1C, which was intentionally destroyed by a Chinese anti-satellite missile in 2007. This event dramatically increased the amount of space debris, with thousands of trackable fragments posing hazards to satellites and human spaceflight. The Fengyun 1C debris cloud has become a focal point in discussions about space sustainability and the need for international regulations to prevent the creation of new debris.

Loading next visibility...
Identifier
31880, 1999-025CKF
Orbit
SSO
Country
Flag of CNCN / PRC
Related business
Manufacturer
Unknown
Mission
Spacecraft
Bus & Motor
Unknown
Mass
Unknown
Launch date (UTC)
1999-05-10 (27 years ago)
Launch vehicle
Unknown
Launch site
Taiyaun Space Center, China (TSC)
Object type
Payload
Rocket body
Debris
Shape & HBR
Unknown shape, 0.1 m
Radar Cross Section
Small (<0.1 m²)

Expand to show TLE details & history
Last TLE update: 1 week ago

TLE from 1 week ago
0 FENGYUN 1C DEB
1 31880U 99025CKF 26248.31626675  .00000652  00000-0  53533-3 0  9998
2 31880 100.0364  76.8756 0127892 171.7657 188.5638 13.89834690666826
Epoch: 2026-09-05T07:35Z
TLE epoch observation values (Epoch: 2026-09-05T07:35:25.447Z)
Latitude
-0.00001°
Longitude
-21.40791°
Altitude
1,024.496 km
Speed
7.293 km/s
True Right ascension
05h 07m 30s
True Declination
0° 00' 00"
Sunlit
Object was in daylight at epoch
Visualization orbit readout
Latitude
Unknown
Longitude
Unknown
Altitude
Unknown
Speed
Unknown
Apparent Right ascension
Unknown
Apparent Declination
Unknown
Sunlit
N/A
Visualization observer readout
Local Sidereal Time
12:41:18
Azimuth
Unknown
Elevation
Unknown
Doppler factor
Unknown
Orbital elements
Apogee altitude
1,019.896 km
Perigee altitude
833.056 km
Semi-major axis
7,304.613 km
Eccentricity
0.01279
Inclination
100.0364°
RAAN
76.8756°
Arg. of periapsis
171.7657°
True anomaly
188.34897°
Mean anomaly
188.5638°
Eccentric anomaly
188.45605°
Mean motion
3.47654 °/min
Orbital period
103.55 mins
BSTAR
0.00053533
Loading maneuver chart data...
Computing Atmospheric mass density...
Loading historical data...
Loading historical data...
Loading historical data...
Loading historical data...
Loading historical data...
Loading historical data...
Loading historical data...

Documentation

Showing up to 5 results
|